Wind_Speed
30 31 32 32 33 33 33 33 33 34 34 33 33 32 33 34 35 35 35 35 36 36 37 39 38 38 39 39 39 40 40 40 41 41 42 42 42 43 43 44 44 44 44
30 31 31 32 33 34 34 34 34 34 34 34 34 34 35 36 36 36 37 37 37 37 38 40 40 40 40 41 41 41 42 41 41 43 44 44 45 45 45 46 47 47 47
31 31 32 32 33 34 34 35 35 35 35 36 36 36 36 37 37 37 38 39 39 38 39 40 41 42 42 42 43 43 43 42 44 44 44 45 46 46 47 48 48 48 49
33 33 33 33 34 34 35 35 35 36 36 37 37 37 38 38 39 39 39 40 40 40 40 41 42 43 43 43 44 44 44 46 46 46 46 47 48 48 48 49 49 49 50
33 33 33 34 34 35 35 35 36 36 37 37 38 38 39 40 41 41 41 41 41 42 42 42 43 44 45 44 44 45 46 47 47 47 47 48 48 49 49 48 49 51 51
33 34 34 34 35 35 35 36 37 38 38 38 39 39 40 40 41 42 42 42 43 43 43 43 43 44 45 45 46 46 47 47 47 47 47 48 49 49 50 50 50 51 51
32 33 33 33 34 35 35 36 37 38 39 39 39 39 41 41 42 42 43 43 43 44 44 44 44 44 45 46 47 47 47 48 48 48 49 49 50 50 51 52 52 52 53
31 31 33 34 34 34 35 36 37 37 38 38 39 40 41 41 42 43 44 44 44 45 45 45 45 45 45 46 47 47 48 48 48 48 49 50 51 52 53 53 54 55 55
30 31 32 33 34 34 34 36 36 37 38 38 39 40 41 42 43 44 45 45 46 46 45 45 45 46 46 46 47 48 48 48 49 50 50 51 52 53 54 55 56 57 57
29 30 31 32 34 35 36 37 37 38 39 40 40 41 42 43 44 45 46 46 46 46 45 46 46 46 46 46 46 47 49 49 50 51 52 53 54 54 55 56 57 58 58
29 30 31 33 33 34 36 38 38 39 40 40 41 42 42 43 44 45 45 46 46 45 45 45 45 45 46 46 47 48 49 50 52 53 54 54 55 55 55 56 56 57 57
29 30 32 33 34 34 36 37 39 39 40 41 41 41 42 43 43 44 44 44 44 44 44 44 44 45 46 47 47 48 49 50 52 53 53 54 54 55 55 56 56 56 57
28 29 31 32 33 34 35 37 38 39 39 40 40 40 41 42 43 43 44 44 44 44 44 44 45 46 47 47 48 49 50 51 52 53 53 53 53 54 55 55 55 55 56
28 29 30 31 32 33 34 36 37 38 39 39 40 41 41 42 43 43 43 44 44 45 45 45 45 47 47 48 49 49 51 51 51 52 52 52 52 53 53 54 54 53 54
30 30 31 31 32 32 33 34 36 37 38 39 40 40 41 41 42 43 43 43 44 44 45 45 46 47 48 49 49 50 50 50 50 50 50 51 51 52 52 52 52 53 53
31 31 32 32 32 33 34 35 36 37 38 39 40 41 41 41 42 43 43 43 43 44 45 46 46 47 48 49 49 50 49 49 48 48 49 50 51 52 52 52 52 53 53
32 32 33 33 33 34 34 36 36 38 39 40 41 41 41 41 41 42 42 42 43 44 45 46 47 48 49 49 49 49 49 48 48 48 49 49 50 51 52 52 53 54 54
32 33 34 34 34 35 36 36 37 38 39 40 41 41 41 40 41 41 41 42 43 44 45 46 48 48 48 48 48 48 48 48 48 49 49 49 50 50 51 52 52 53 53
32 33 34 35 36 36 37 37 38 39 39 40 41 40 40 40 41 42 43 43 44 45 46 46 46 46 47 47 47 47 47 48 49 49 49 48 49 49 50 51 51 51 52
32 33 34 35 36 38 38 39 39 40 40 40 40 41 41 42 42 43 44 44 44 45 45 45 45 46 46 46 46 46 47 48 48 48 48 48 48 49 50 50 50 50 50
33 33 34 35 37 38 39 39 40 40 40 41 41 42 43 43 44 44 45 45 45 44 44 44 45 45 45 46 46 46 46 46 47 47 47 48 48 48 48 48 48 49 49
34 34 35 36 37 37 38 39 40 40 41 41 42 43 43 44 44 45 45 45 45 45 44 44 44 44 45 45 45 45 46 46 45 45 46 47 47 48 48 47 47 48 49
34 35 35 36 37 38 38 39 39 40 41 42 43 43 44 44 44 44 44 44 44 44 44 45 45 45 45 45 45 45 45 46 45 46 46 47 47 47 47 47 46 46 47
35 36 36 37 37 38 38 39 39 40 41 42 43 43 43 44 44 44 43 43 43 43 44 44 44 44 44 45 45 45 45 45 46 46 47 47 47 47 46 46 46 46 46
36 37 37 37 38 38 38 38 39 40 40 41 41 41 41 42 42 42 42 42 42 43 43 43 43 43 43 43 44 44 44 44 45 45 45 45 45 46 46 46 46 46 46
36 36 37 37 37 37 37 37 38 38 39 39 39 40 40 40 41 41 41 41 41 42 42 42 42 42 42 42 43 43 43 43 43 44 44 44 44 44 44 44 44 45 45
Wind_Direction
256 254 255 255 256 258 258 260 261 262 262 263 264 265 266 265 264 264 264 264 264 263 261 260 261 261 263 265 266 266 265 262 261 261 263 263 263 263 263 262 261 261 261
257 256 255 256 258 259 259 260 260 260 261 262 263 265 266 266 265 265 265 265 265 264 263 263 264 263 263 265 266 266 264 262 261 263 263 263 264 264 264 263 262 263 263
258 258 257 257 259 259 260 260 260 260 260 262 264 265 266 267 268 267 266 266 265 266 265 265 265 264 265 265 265 265 263 263 265 264 264 264 264 263 264 264 264 264 264
258 258 258 257 259 259 260 259 259 260 262 264 265 266 268 268 268 268 268 267 267 267 267 267 266 266 266 265 265 264 264 266 266 264 263 264 265 264 263 264 265 265 264
260 259 259 258 258 259 259 259 259 261 263 264 266 267 268 268 269 269 269 268 268 268 268 268 268 267 267 266 266 266 267 267 266 266 265 265 266 265 265 265 266 266 265
259 260 260 259 259 259 259 260 260 261 262 264 265 267 269 269 270 270 270 269 269 269 269 269 269 268 268 268 268 267 266 266 266 266 266 266 266 266 266 266 267 267 267
260 260 260 261 260 260 260 261 262 262 263 264 266 268 270 271 271 270 270 270 270 270 269 269 269 269 269 268 268 268 267 267 267 266 266 266 266 267 268 268 268 267 267
261 260 261 262 262 262 263 263 264 264 264 265 266 268 270 271 271 270 270 270 271 271 270 270 269 270 270 269 268 268 268 268 267 267 267 267 267 268 269 268 268 268 267
262 263 263 263 264 264 264 264 264 264 265 266 267 269 270 271 271 271 272 272 273 272 271 270 269 269 269 269 268 268 268 268 268 268 269 269 269 269 270 270 269 269 268
264 264 264 264 265 264 264 264 264 264 266 267 268 269 270 271 272 272 273 272 273 273 271 270 270 270 269 270 270 270 269 270 270 270 270 270 270 270 270 271 270 270 269
266 265 265 266 267 266 265 266 267 267 267 269 270 271 272 272 273 273 273 272 273 272 271 271 271 271 271 271 271 271 271 271 271 271 271 271 271 271 271 271 271 271 270
269 269 268 267 267 267 267 266 267 268 268 269 271 271 273 274 274 274 274 274 274 273 273 273 273 273 273 273 273 273 273 273 273 272 272 272 272 272 272 272 272 272 272
271 270 270 270 269 269 269 269 269 269 269 270 271 273 274 275 276 276 275 275 275 275 275 275 275 274 274 275 275 275 275 275 274 273 273 272 273 273 273 272 273 271 271
271 271 271 271 271 271 271 271 271 271 271 271 273 275 275 275 276 276 276 276 276 276 275 275 276 276 276 276 277 277 277 276 275 274 274 273 273 273 273 273 273 272 272
271 272 272 272 271 271 272 272 272 272 272 273 274 275 275 276 276 276 276 276 277 276 276 277 277 278 278 278 278 278 278 277 276 275 274 274 273 274 274 275 274 272 272
271 272 273 273 273 274 274 274 274 273 274 274 275 275 276 276 276 276 277 277 277 277 277 278 279 279 279 279 279 278 277 277 276 276 276 275 275 275 274 275 274 273 273
273 273 273 274 275 275 275 276 276 275 275 274 275 276 276 276 276 277 277 277 278 279 280 280 280 280 280 280 279 278 277 276 276 277 277 277 276 276 275 275 274 273 272
275 274 274 275 276 276 277 277 277 277 276 276 276 276 277 277 278 278 278 278 279 280 280 281 281 281 281 280 279 277 276 276 277 278 278 278 278 278 277 276 275 273 273
276 276 277 277 277 278 279 279 279 278 278 278 277 277 277 277 278 278 278 279 280 280 280 281 281 281 280 279 278 277 276 277 278 278 279 279 279 279 278 277 276 274 273
279 279 279 279 279 279 280 280 280 279 279 279 279 278 278 278 278 279 280 281 281 281 281 282 282 281 280 279 278 277 277 277 278 278 278 279 280 281 280 279 277 275 274
280 280 280 281 282 281 281 281 281 281 280 280 280 280 280 280 280 281 281 281 281 281 282 283 283 282 281 280 279 277 277 277 278 278 279 280 281 281 281 280 279 276 274
280 280 281 281 282 282 281 281 280 280 280 281 281 281 281 281 281 281 281 281 281 281 282 283 283 283 282 280 278 278 278 278 278 279 280 281 282 281 281 281 280 279 277
281 282 282 281 281 282 281 280 280 281 281 282 282 282 281 281 282 282 281 281 281 281 282 283 283 283 282 281 279 279 279 279 279 279 280 281 282 282 282 282 281 280 279
281 282 283 282 282 282 282 282 282 283 284 284 283 282 282 282 282 282 282 281 281 282 283 283 283 282 282 281 280 279 279 279 279 280 280 280 281 281 282 282 281 281 280
283 283 283 283 282 282 282 283 284 285 285 285 284 283 283 283 283 282 282 282 282 282 283 282 282 282 282 281 280 280 280 280 281 281 281 281 281 281 282 281 281 281 280
284 283 283 283 283 283 284 285 286 286 286 286 285 284 284 283 283 283 283 282 282 283 283 283 283 282 282 281 280 280 281 282 282 282 281 282 282 282 282 282 281 281 281
Height
5708 5708 5709 5710 5711 5711 5712 5713 5713 5713 5713 5714 5714 5714 5713 5713 5713 5713 5713 5714 5714 5714 5715 5715 5716 5717 5718 5718 5718 5719 5719 5719 5720 5722 5723 5723 5724 5725 5725 5726 5727 5728 5728
5699 5700 5701 5702 5702 5703 5704 5704 5705 5705 5705 5705 5705 5705 5705 5704 5704 5705 5705 5705 5704 5705 5705 5706 5706 5707 5708 5708 5708 5708 5708 5709 5710 5711 5712 5713 5714 5713 5713 5714 5715 5716 5717
5691 5691 5692 5693 5694 5694 5695 5695 5696 5696 5696 5696 5696 5696 5696 5696 5696 5696 5695 5695 5695 5695 5695 5696 5696 5696 5697 5697 5697 5697 5698 5699 5699 5699 5700 5700 5702 5702 5703 5702 5702 5703 5704
5682 5682 5683 5684 5685 5685 5686 5686 5686 5687 5687 5687 5688 5687 5687 5687 5686 5686 5686 5685 5685 5685 5685 5685 5685 5685 5685 5686 5686 5686 5686 5687 5687 5687 5687 5688 5688 5689 5690 5690 5690 5690 5690
5672 5673 5674 5675 5675 5675 5676 5676 5677 5678 5678 5678 5678 5678 5677 5677 5676 5676 5676 5675 5675 5675 5674 5674 5674 5674 5674 5674 5674 5674 5674 5674 5674 5674 5675 5675 5675 5675 5676 5677 5677 5677 5676
5662 5663 5664 5665 5665 5666 5666 5667 5668 5668 5668 5668 5668 5668 5667 5667 5666 5666 5665 5665 5664 5664 5663 5663 5662 5662 5662 5662 5662 5662 5662 5662 5662 5662 5662 5662 5662 5662 5662 5663 5663 5663 5663
5653 5654 5655 5656 5656 5656 5657 5657 5658 5658 5658 5658 5658 5658 5657 5656 5656 5655 5654 5654 5653 5652 5652 5651 5650 5650 5649 5649 5649 5649 5649 5649 5649 5649 5649 5649 5649 5649 5648 5649 5648 5648 5648
5644 5645 5646 5646 5647 5647 5647 5647 5648 5648 5648 5648 5648 5647 5646 5646 5645 5644 5643 5642 5641 5640 5640 5639 5638 5637 5637 5637 5637 5636 5636 5636 5636 5636 5635 5635 5635 5634 5634 5633 5633 5633 5633
5635 5636 5636 5637 5637 5637 5637 5637 5637 5638 5638 5638 5637 5636 5636 5635 5634 5632 5631 5630 5629 5628 5627 5627 5626 5625 5625 5624 5624 5624 5624 5623 5623 5622 5622 5621 5620 5619 5619 5618 5617 5617 5617
5626 5627 5627 5627 5627 5627 5627 5627 5627 5627 5627 5627 5626 5625 5624 5623 5622 5621 5619 5618 5617 5616 5615 5614 5614 5613 5612 5611 5611 5611 5610 5610 5609 5608 5607 5606 5605 5604 5603 5602 5601 5600 5599
5617 5617 5618 5618 5618 5617 5617 5617 5616 5616 5616 5616 5615 5614 5613 5612 5610 5608 5607 5606 5605 5604 5602 5602 5601 5600 5599 5598 5598 5597 5596 5595 5594 5593 5592 5590 5589 5588 5587 5585 5584 5583 5582
5608 5608 5608 5608 5608 5607 5607 5606 5606 5605 5605 5604 5604 5602 5601 5600 5598 5596 5595 5593 5592 5591 5590 5589 5588 5587 5586 5585 5584 5583 5582 5581 5579 5578 5576 5575 5573 5572 5571 5569 5568 5566 5566
5599 5599 5599 5598 5598 5597 5597 5596 5595 5594 5594 5593 5592 5591 5590 5588 5586 5585 5583 5581 5580 5579 5578 5577 5576 5574 5573 5572 5571 5569 5568 5566 5564 5562 5561 5559 5558 5556 5554 5553 5552 5550 5549
5591 5590 5589 5589 5588 5587 5587 5586 5585 5584 5583 5582 5581 5579 5578 5576 5574 5573 5571 5570 5568 5567 5566 5564 5563 5561 5560 5558 5557 5555 5553 5551 5549 5547 5546 5544 5542 5541 5539 5538 5536 5535 5534
5582 5581 5580 5579 5578 5577 5576 5575 5574 5573 5572 5571 5570 5568 5566 5565 5563 5561 5560 5558 5557 5555 5553 5552 5550 5548 5547 5545 5543 5541 5539 5537 5535 5533 5531 5529 5528 5526 5524 5523 5521 5519 5518
5572 5571 5570 5569 5568 5567 5566 5565 5563 5562 5561 5560 5558 5556 5555 5553 5552 5550 5548 5547 5545 5543 5541 5539 5537 5535 5533 5531 5529 5527 5525 5523 5521 5519 5517 5515 5513 5512 5510 5508 5506 5504 5503
5562 5561 5560 5559 5558 5557 5556 5554 5553 5551 5550 5548 5547 5545 5543 5542 5540 5538 5536 5535 5533 5531 5528 5526 5524 5522 5519 5517 5515 5512 5511 5509 5507 5505 5503 5501 5499 5497 5495 5493 5491 5489 5487
5552 5551 5550 5549 5548 5546 5545 5543 5542 5540 5539 5537 5535 5533 5532 5530 5528 5526 5524 5522 5520 5518 5515 5513 5510 5508 5505 5503 5501 5499 5497 5495 5493 5491 5489 5487 5484 5482 5480 5478 5476 5474 5473
5542 5541 5540 5538 5537 5536 5534 5532 5531 5529 5527 5525 5523 5522 5520 5518 5516 5514 5512 5510 5507 5505 5502 5500 5497 5494 5492 5489 5487 5485 5484 5482 5480 5477 5475 5473 5470 5468 5465 5464 5462 5460 5458
5532 5531 5529 5528 5526 5524 5523 5521 5519 5517 5515 5513 5511 5510 5508 5506 5504 5502 5499 5497 5494 5491 5489 5486 5484 5481 5479 5476 5474 5472 5470 5469 5466 5464 5461 5459 5456 5453 5450 5448 5447 5445 5443
5522 5521 5519 5517 5515 5513 5511 5509 5507 5505 5503 5501 5499 5497 5495 5493 5491 5489 5486 5484 5481 5479 5476 5474 5471 5468 5465 5463 5461 5458 5456 5454 5452 5450 5447 5445 5442 5439 5436 5434 5432 5430 5428
5512 5510 5508 5506 5504 5502 5500 5498 5496 5493 5491 5489 5487 5485 5482 5480 5478 5475 5473 5470 5468 5466 5463 5460 5458 5455 5452 5450 5447 5445 5442 5440 5438 5436 5433 5431 5428 5425 5422 5419 5417 5415 5412
5501 5499 5497 5495 5493 5490 5488 5486 5483 5481 5478 5476 5474 5471 5469 5466 5464 5462 5459 5457 5455 5452 5450 5447 5444 5442 5439 5436 5434 5431 5429 5426 5424 5422 5419 5416 5413 5410 5408 5405 5403 5400 5398
5490 5488 5486 5484 5481 5479 5476 5474 5471 5469 5466 5464 5461 5458 5456 5453 5451 5448 5446 5444 5442 5439 5436 5434 5431 5428 5426 5423 5420 5418 5415 5412 5410 5408 5405 5402 5399 5396 5394 5391 5389 5386 5384
5479 5477 5475 5472 5470 5467 5465 5462 5459 5457 5454 5451 5448 5445 5443 5440 5438 5435 5433 5431 5428 5426 5423 5421 5418 5416 5413 5410 5407 5404 5402 5399 5396 5394 5391 5389 5386 5383 5380 5378 5375 5372 5370
5467 5465 5463 5461 5458 5456 5453 5450 5447 5445 5442 5439 5436 5433 5431 5428 5425 5423 5420 5418 5416 5413 5410 5407 5405 5402 5400 5397 5394 5391 5388 5385 5383 5380 5378 5375 5373 5370 5367 5364 5361 5359 5356